Time,TemperatureF,DewpointF,PressureIn,WindDirection,WindDirectionDegrees,WindSpeedMPH,WindSpeedGustMPH,Humidity,HourlyPrecipIn,Conditions,Clouds,dailyrainin,SoftwareType,DateUTC
2013-04-01 01:00:00,50.0,48.0,-100.00,SE,140,2.0,-999.0,94,0.00,,,-99.99,,2013-04-01 08:00:00,
2013-04-01 01:22:00,50.0,48.0,-100.00,SE,140,2.0,-999.0,94,0.00,,,-99.99,,2013-04-01 08:22:00,
2013-04-01 01:32:00,50.0,48.0,-100.00,SE,140,2.0,-999.0,94,0.00,,,-99.99,,2013-04-01 08:32:00,
2013-04-01 01:43:00,50.0,48.0,-100.00,SE,140,2.0,-999.0,94,0.00,,,-99.99,,2013-04-01 08:43:00,
2013-04-01 01:53:00,50.0,48.0,-100.00,SE,140,2.0,-999.0,94,0.00,,,-99.99,,2013-04-01 08:53:00,
2013-04-01 02:00:00,49.0,48.0,-100.00,South,171,2.0,-999.0,94,0.00,,,-99.99,,2013-04-01 09:00:00,
2013-04-01 02:23:00,49.0,48.0,-100.00,South,171,2.0,-999.0,94,0.00,,,-99.99,,2013-04-01 09:23:00,
2013-04-01 02:33:00,49.0,48.0,-100.00,South,171,2.0,-999.0,94,0.00,,,-99.99,,2013-04-01 09:33:00,
2013-04-01 02:43:00,49.0,48.0,-100.00,South,171,2.0,-999.0,94,0.00,,,-99.99,,2013-04-01 09:43:00,
2013-04-01 02:53:00,49.0,48.0,-100.00,South,171,2.0,-999.0,94,0.00,,,-99.99,,2013-04-01 09:53:00,
2013-04-01 03:00:00,49.0,47.0,-100.00,SSW,192,6.0,-999.0,94,0.00,,,-99.99,,2013-04-01 10:00:00,
2013-04-01 03:23:00,49.0,47.0,-100.00,SSW,192,6.0,-999.0,94,0.00,,,-99.99,,2013-04-01 10:23:00,
2013-04-01 03:34:00,49.0,47.0,-100.00,SSW,192,6.0,-999.0,94,0.00,,,-99.99,,2013-04-01 10:34:00,
2013-04-01 03:42:00,49.0,47.0,-100.00,SSW,192,6.0,-999.0,94,0.00,,,-99.99,,2013-04-01 10:42:00,
2013-04-01 03:53:00,49.0,47.0,-100.00,SSW,192,6.0,-999.0,94,0.00,,,-99.99,,2013-04-01 10:53:00,
2013-04-01 04:00:00,48.0,47.0,-100.00,SSE,158,8.0,-999.0,94,0.00,,,-99.99,,2013-04-01 11:00:00,
2013-04-01 04:23:00,48.0,47.0,-100.00,SSE,158,8.0,-999.0,94,0.00,,,-99.99,,2013-04-01 11:23:00,
2013-04-01 04:33:00,48.0,47.0,-100.00,SSE,158,8.0,-999.0,94,0.00,,,-99.99,,2013-04-01 11:33:00,
2013-04-01 04:43:00,48.0,47.0,-100.00,SSE,158,8.0,-999.0,94,0.00,,,-99.99,,2013-04-01 11:43:00,
2013-04-01 04:53:00,48.0,47.0,-100.00,SSE,158,8.0,-999.0,94,0.00,,,-99.99,,2013-04-01 11:53:00,
2013-04-01 05:00:00,48.0,47.0,-100.00,SSW,192,2.0,-999.0,94,0.00,,,-99.99,,2013-04-01 12:00:00,
2013-04-01 05:23:00,48.0,47.0,-100.00,SSW,192,2.0,-999.0,94,0.00,,,-99.99,,2013-04-01 12:23:00,
2013-04-01 05:32:00,48.0,47.0,-100.00,SSW,192,2.0,-999.0,94,0.00,,,-99.99,,2013-04-01 12:32:00,
2013-04-01 05:42:00,48.0,47.0,-100.00,SSW,192,2.0,-999.0,94,0.00,,,-99.99,,2013-04-01 12:42:00,
2013-04-01 05:53:00,48.0,47.0,-100.00,SSW,192,2.0,-999.0,94,0.00,,,-99.99,,2013-04-01 12:53:00,
2013-04-01 06:00:00,48.0,47.0,-100.00,WSW,248,0.0,-999.0,94,0.00,,,-99.99,,2013-04-01 13:00:00,
2013-04-01 06:22:00,48.0,47.0,-100.00,WSW,248,0.0,-999.0,94,0.00,,,-99.99,,2013-04-01 13:22:00,
2013-04-01 06:33:00,48.0,47.0,-100.00,WSW,248,0.0,-999.0,94,0.00,,,-99.99,,2013-04-01 13:33:00,
2013-04-01 06:43:00,48.0,47.0,-100.00,WSW,248,0.0,-999.0,94,0.00,,,-99.99,,2013-04-01 13:43:00,
2013-04-01 06:52:00,48.0,47.0,-100.00,WSW,248,0.0,-999.0,94,0.00,,,-99.99,,2013-04-01 13:52:00,
2013-04-01 10:00:00,52.0,50.0,-100.00,SE,129,3.0,-999.0,93,0.00,,,-99.99,,2013-04-01 17:00:00,
2013-04-01 10:23:00,52.0,50.0,-100.00,SE,129,3.0,-999.0,93,0.00,,,-99.99,,2013-04-01 17:23:00,
2013-04-01 10:32:00,52.0,50.0,-100.00,SE,129,3.0,-999.0,93,0.00,,,-99.99,,2013-04-01 17:32:00,
2013-04-01 10:42:00,52.0,50.0,-100.00,SE,129,3.0,-999.0,93,0.00,,,-99.99,,2013-04-01 17:42:00,
2013-04-01 10:52:00,52.0,50.0,-100.00,SE,129,3.0,-999.0,93,0.00,,,-99.99,,2013-04-01 17:52:00,
2013-04-01 11:00:00,54.0,49.0,-100.00,South,188,3.0,-999.0,84,0.00,,,-99.99,,2013-04-01 18:00:00,
2013-04-01 11:22:00,54.0,49.0,-100.00,South,188,3.0,-999.0,84,0.00,,,-99.99,,2013-04-01 18:22:00,
2013-04-01 11:33:00,54.0,49.0,-100.00,South,188,3.0,-999.0,84,0.00,,,-99.99,,2013-04-01 18:33:00,
2013-04-01 11:43:00,54.0,49.0,-100.00,South,188,3.0,-999.0,84,0.00,,,-99.99,,2013-04-01 18:43:00,
2013-04-01 11:53:00,54.0,49.0,-100.00,South,188,3.0,-999.0,84,0.00,,,-99.99,,2013-04-01 18:53:00,
2013-04-01 12:00:00,55.0,48.0,-100.00,South,179,10.0,-999.0,78,0.00,,,-99.99,,2013-04-01 19:00:00,
2013-04-01 12:23:00,55.0,48.0,-100.00,South,179,10.0,-999.0,78,0.00,,,-99.99,,2013-04-01 19:23:00,
2013-04-01 12:32:00,55.0,48.0,-100.00,South,179,10.0,-999.0,78,0.00,,,-99.99,,2013-04-01 19:32:00,
2013-04-01 12:42:00,55.0,48.0,-100.00,South,179,10.0,-999.0,78,0.00,,,-99.99,,2013-04-01 19:42:00,
2013-04-01 12:53:00,55.0,48.0,-100.00,South,179,10.0,-999.0,78,0.00,,,-99.99,,2013-04-01 19:53:00,
2013-04-01 13:00:00,58.0,45.0,-100.00,SSE,161,2.0,-999.0,62,0.00,,,-99.99,,2013-04-01 20:00:00,
2013-04-01 13:23:00,58.0,45.0,-100.00,SSE,161,2.0,-999.0,62,0.00,,,-99.99,,2013-04-01 20:23:00,
2013-04-01 13:33:00,58.0,45.0,-100.00,SSE,161,2.0,-999.0,62,0.00,,,-99.99,,2013-04-01 20:33:00,
2013-04-01 13:43:00,58.0,45.0,-100.00,SSE,161,2.0,-999.0,62,0.00,,,-99.99,,2013-04-01 20:43:00,
2013-04-01 13:52:00,58.0,45.0,-100.00,SSE,161,2.0,-999.0,62,0.00,,,-99.99,,2013-04-01 20:52:00,
2013-04-01 14:00:00,60.0,49.0,-100.00,East,82,1.0,-999.0,65,0.00,,,-99.99,,2013-04-01 21:00:00,
2013-04-01 14:23:00,60.0,49.0,-100.00,East,82,1.0,-999.0,65,0.00,,,-99.99,,2013-04-01 21:23:00,
2013-04-01 14:33:00,60.0,49.0,-100.00,East,82,1.0,-999.0,65,0.00,,,-99.99,,2013-04-01 21:33:00,
2013-04-01 14:43:00,60.0,49.0,-100.00,East,82,1.0,-999.0,65,0.00,,,-99.99,,2013-04-01 21:43:00,
2013-04-01 14:53:00,60.0,49.0,-100.00,East,82,1.0,-999.0,65,0.00,,,-99.99,,2013-04-01 21:53:00,
2013-04-01 15:00:00,61.0,51.0,-100.00,South,171,6.0,-999.0,67,0.00,,,-99.99,,2013-04-01 22:00:00,
2013-04-01 15:23:00,61.0,51.0,-100.00,South,171,6.0,-999.0,67,0.00,,,-99.99,,2013-04-01 22:23:00,
2013-04-01 15:33:00,61.0,51.0,-100.00,South,171,6.0,-999.0,67,0.00,,,-99.99,,2013-04-01 22:33:00,
2013-04-01 15:43:00,61.0,51.0,-100.00,South,171,6.0,-999.0,67,0.00,,,-99.99,,2013-04-01 22:43:00,
2013-04-01 15:52:00,61.0,51.0,-100.00,South,171,6.0,-999.0,67,0.00,,,-99.99,,2013-04-01 22:52:00,
2013-04-01 16:00:00,62.0,49.0,-100.00,SSW,201,6.0,-999.0,61,0.00,,,-99.99,,2013-04-01 23:00:00,
2013-04-01 16:23:00,62.0,49.0,-100.00,SSW,201,6.0,-999.0,61,0.00,,,-99.99,,2013-04-01 23:23:00,
2013-04-01 16:32:00,62.0,49.0,-100.00,SSW,201,6.0,-999.0,61,0.00,,,-99.99,,2013-04-01 23:32:00,
2013-04-01 16:43:00,62.0,49.0,-100.00,SSW,201,6.0,-999.0,61,0.00,,,-99.99,,2013-04-01 23:43:00,
2013-04-01 16:53:00,62.0,49.0,-100.00,SSW,201,6.0,-999.0,61,0.00,,,-99.99,,2013-04-01 23:53:00,
2013-04-01 17:00:00,60.0,48.0,-100.00,SSW,197,5.0,-999.0,63,0.00,,,-99.99,,2013-04-02 00:00:00,
2013-04-01 17:22:00,60.0,48.0,-100.00,SSW,197,5.0,-999.0,63,0.00,,,-99.99,,2013-04-02 00:22:00,
2013-04-01 17:33:00,60.0,48.0,-100.00,SSW,197,5.0,-999.0,63,0.00,,,-99.99,,2013-04-02 00:33:00,
2013-04-01 17:43:00,60.0,48.0,-100.00,SSW,197,5.0,-999.0,63,0.00,,,-99.99,,2013-04-02 00:43:00,
2013-04-01 17:53:00,60.0,48.0,-100.00,SSW,197,5.0,-999.0,63,0.00,,,-99.99,,2013-04-02 00:53:00,
2013-04-01 18:00:00,60.0,50.0,-100.00,NW,313,2.0,-999.0,69,0.00,,,-99.99,,2013-04-02 01:00:00,
2013-04-01 18:22:00,60.0,50.0,-100.00,NW,313,2.0,-999.0,69,0.00,,,-99.99,,2013-04-02 01:22:00,
2013-04-01 18:32:00,60.0,50.0,-100.00,NW,313,2.0,-999.0,69,0.00,,,-99.99,,2013-04-02 01:32:00,
2013-04-01 18:43:00,60.0,50.0,-100.00,NW,313,2.0,-999.0,69,0.00,,,-99.99,,2013-04-02 01:43:00,
2013-04-01 18:52:00,60.0,50.0,-100.00,NW,313,2.0,-999.0,69,0.00,,,-99.99,,2013-04-02 01:52:00,
2013-04-01 19:00:00,55.0,47.0,-100.00,NNW,337,4.0,-999.0,75,0.00,,,-99.99,,2013-04-02 02:00:00,
2013-04-01 19:22:00,55.0,47.0,-100.00,NNW,337,4.0,-999.0,75,0.00,,,-99.99,,2013-04-02 02:22:00,
2013-04-01 19:33:00,55.0,47.0,-100.00,NNW,337,4.0,-999.0,75,0.00,,,-99.99,,2013-04-02 02:33:00,
2013-04-01 19:42:00,55.0,47.0,-100.00,NNW,337,4.0,-999.0,75,0.00,,,-99.99,,2013-04-02 02:42:00,
2013-04-01 19:52:00,55.0,47.0,-100.00,NNW,337,4.0,-999.0,75,0.00,,,-99.99,,2013-04-02 02:52:00,
2013-04-01 21:00:00,49.0,46.0,-100.00,North,356,4.0,-999.0,89,0.00,,,-99.99,,2013-04-02 04:00:00,
2013-04-01 21:23:00,49.0,46.0,-100.00,North,356,4.0,-999.0,89,0.00,,,-99.99,,2013-04-02 04:23:00,
2013-04-01 21:33:00,49.0,46.0,-100.00,North,356,4.0,-999.0,89,0.00,,,-99.99,,2013-04-02 04:33:00,
2013-04-01 21:43:00,49.0,46.0,-100.00,North,356,4.0,-999.0,89,0.00,,,-99.99,,2013-04-02 04:43:00,
2013-04-01 21:53:00,49.0,46.0,-100.00,North,356,4.0,-999.0,89,0.00,,,-99.99,,2013-04-02 04:53:00,
2013-04-01 22:00:00,49.0,46.0,-100.00,ESE,122,2.0,-999.0,90,0.00,,,-99.99,,2013-04-02 05:00:00,
2013-04-01 22:23:00,49.0,46.0,-100.00,ESE,122,2.0,-999.0,90,0.00,,,-99.99,,2013-04-02 05:23:00,
2013-04-01 22:32:00,49.0,46.0,-100.00,ESE,122,2.0,-999.0,90,0.00,,,-99.99,,2013-04-02 05:32:00,
2013-04-01 22:43:00,49.0,46.0,-100.00,ESE,122,2.0,-999.0,90,0.00,,,-99.99,,2013-04-02 05:43:00,
2013-04-01 22:52:00,49.0,46.0,-100.00,ESE,122,2.0,-999.0,90,0.00,,,-99.99,,2013-04-02 05:52:00,
2013-04-01 23:00:00,47.0,46.0,-100.00,North,352,2.0,-999.0,93,0.00,,,-99.99,,2013-04-02 06:00:00,
2013-04-01 23:22:00,47.0,46.0,-100.00,North,352,2.0,-999.0,93,0.00,,,-99.99,,2013-04-02 06:22:00,
2013-04-01 23:32:00,47.0,46.0,-100.00,North,352,2.0,-999.0,93,0.00,,,-99.99,,2013-04-02 06:32:00,
2013-04-01 23:42:00,47.0,46.0,-100.00,North,352,2.0,-999.0,93,0.00,,,-99.99,,2013-04-02 06:42:00,
2013-04-01 23:52:00,47.0,46.0,-100.00,North,352,2.0,-999.0,93,0.00,,,-99.99,,2013-04-02 06:52:00,